Regional Weather Roundup
Issued by NWS

Home | Current Version | Previous Version | Graphics & Text | Print | Product List | Glossary On
Versions: 1 2 3 4 5 6 7 8 9 10 11 12 13 14 15 16 17 18 19 20 21 22 23 24 25 26 27
000
ASUS45 KTFX 270610
RWRMT
MONTANA REGIONAL WEATHER ROUNDUP
NATIONAL WEATHER SERVICE GREAT FALLS MT
1200 AM MDT THU APR 27 2017

NOTE: "FAIR" INDICATES FEW OR NO CLOUDS BELOW 12000 FEET WITH NO
SIGNIFICANT WEATHER AND/OR OBSTRUCTIONS TO VISIBILITY.

MTZ001>007-043-270700-
WEST OF THE DIVIDE

CITY           SKY/WX    TMP DP  RH WIND       PRES   REMARKS
KALISPELL      LGT RAIN  42  40  92 S9        29.65S
MISSOULA       CLOUDY    42  36  79 N6        29.71S
BUTTE          CLOUDY    37  31  78 NW9       29.62F WCI  30
MULLAN PASS    SNOW      29  29 100 VRB6      29.66S VSB 1/2 WCI  23
ANACONDA         N/A     36  32  87 NE3       29.65S
DEER LODGE       N/A     37  34  87 N9        29.67R WCI  31
EUREKA           N/A     45  36  70 SE7       29.63R
HAMILTON         N/A     43  28  56 SW8       29.70S
LIBBY            N/A     41  39  93 CALM      29.64S
PLAINS           N/A     43  35  73 CALM      29.72F
$$

MTZ008-052>055-270700-
SOUTHWEST MONTANA

CITY           SKY/WX    TMP DP  RH WIND       PRES   REMARKS
BOZEMAN        CLOUDY    39  36  89 S7        29.61F
DILLON         CLOUDY    39  33  79 SW7       29.58F
W YELLOWSTONE  FOG       32  32 100 CALM      29.62F VSB 1/4
THREE FORKS      N/A     41 -61   1 CALM      29.65F
TWIN BRIDGES     N/A     39  32  76 N7        29.64F
$$

MTZ009-010-012-014-046-048-049-054-270700-
EAST SLOPES AND CENTRAL MONTANA

CITY           SKY/WX    TMP DP  RH WIND       PRES   REMARKS
CUT BANK       CLOUDY    39  38  96 NE5       29.59F
GREAT FALLS    CLOUDY    40  38  93 SE7       29.60F
MALMSTROM AFB  CLOUDY    40  38  95 CALM      29.60F
HELENA         CLOUDY    43  39  86 NW3       29.61S
AUGUSTA        CLOUDY    39  37  94 SW3       29.59F
BOWMANS CRNR   MOCLDY    39  36  88 CALM      29.58F
CHOTEAU          N/A     41  39  93 S10       29.60F
FAIRFIELD        N/A     39  36  90 SE3       29.59S
POWER          MOCLDY    37  36  96 S6        29.58F
RAYNESFORD     MOCLDY    40  36  83 SW7       29.60F
ULM            MOCLDY    39  37  94 SE8       29.59F
$$

MTZ011-013-016-021-045-047-050-051-270700-
NORTH CENTRAL MONTANA

CITY           SKY/WX    TMP DP  RH WIND       PRES   REMARKS
HAVRE          CLOUDY    44  38  79 N5        29.59F
LEWISTOWN      LGT RAIN  39  37  92 W5        29.60F
CHINOOK          N/A     43  34  70 E9        29.60F
DENTON         LGT RAIN  42  39  91 W12       29.56F
FORT BENTON      N/A     43  39  87 MISG      29.61F
GEYSER         DRIZZLE   39  37  91 CALM      29.59F
GRASS RANGE    MOCLDY    39  37  92 NW3       29.57F
JUDITH GAP     SHOWER    33  32  95 NW10      29.60S WCI  25
STANFORD       MOCLDY    37  36  94 NW9       29.59F WCI  30
WINIFRED       CLOUDY    42  38  84 SW7       29.59F
$$

MTZ017>020-022>027-061-062-270700-
NORTHEAST MONTANA

CITY           SKY/WX    TMP DP  RH WIND       PRES   REMARKS
GLASGOW        PTCLDY    36  24  62 E12       29.68F WCI  28
JORDAN           N/A     34  29  82 E6        29.65F WCI  29
SIDNEY         CLEAR     33  21  61 N3        29.74F
WOLF POINT     PTCLDY    32  23  69 NE9       29.72S WCI  24
MALTA          CLOUDY    41  30  65 E7        29.64
PLENTYWOOD       N/A     34  21  60 E14       29.75F WCI  24
POPLAR           N/A     37  19  48 E10       29.73S WCI  30
SCOBEY           N/A     34  16  48 E12       29.72F WCI  25
$$

MTZ028>42-056>058-270700-
SOUTHCENTRAL AND SOUTHEAST MONTANA

CITY           SKY/WX    TMP DP  RH WIND       PRES   REMARKS
BAKER          CLEAR     28  24  85 SE5       29.69F
BILLINGS       CLOUDY    42  37  82 SW10      29.60F
LIVINGSTON     CLOUDY    39  36  89 SW9       29.60F
MILES CITY     CLEAR     38  28  67 SE7       29.66F
BIG TIMBER     CLOUDY    39  37  93 SW12      29.62F WCI  32
EKALAKA          N/A     31  23  72 SE6       29.67F WCI  25
LAUREL           N/A     40  32  73 SW1       29.63R
ROUNDUP          N/A     43  38  82 W1        29.55F
$$

REGIONAL REPORTS...DAKOTAS

CITY           SKY/WX    TMP DP  RH WIND       PRES   REMARKS
WILLISTON      PTCLDY    33  23  66 N7        29.76F WCI  27
MINOT          CLEAR     27  23  85 NW3       29.79S
DICKINSON      CLEAR     26  21  81 SE8       29.72S WCI  18
TIOGA            N/A     27  27 100 E10       29.78F WCI  17
WATFORD CITY     N/A     30  23  74 E10       29.75F WCI  21
BISMARCK       CLOUDY    36  28  73 N5        29.77F
GRAND FORKS    LGT SNOW  31  29  92 N17       29.75F FOG     WCI  19
FARGO          FLURRIES  28  26  92 N15       29.71R WCI  16
BUFFALO SD       N/A     33  24  69 NE8       29.62F WCI  26
RAPID CITY     CLEAR     29  26  89 W5        29.69F
$$

REGIONAL REPORTS...WYOMING/IDAHO/WASHINGTON

CITY           SKY/WX    TMP DP  RH WIND       PRES   REMARKS
GILLETTE       CLEAR     29  27  92 CALM      29.63F
SHERIDAN       PTCLDY    31  28  89 NW3       29.62F
BUFFALO WY     CLOUDY    36  27  69 S8        29.61F WCI  30
CODY           CLOUDY    37  36  96 N9        29.61F WCI  30
YELLOWSTONE LA   N/A     28  28 100 CALM      29.61F
IDAHO FALLS    CLOUDY    42  40  92 S16       29.64F
SALMON         MOCLDY    37  36  93 S6        29.68F
BOISE          CLEAR     42  38  85 NW10      29.82R
SPOKANE        PTCLDY    42  38  85 S7        29.72R
$$

REGIONAL REPORTS...ALBERTA

CITY           SKY/WX    TMP DP  RH WIND       PRES   REMARKS
EDMONTON       CLOUDY    32  30  93 E5        29.73S
CALGARY        FLURRIES  34  32  93 E7        29.65F WCI  28
LETHBRIDGE     CLOUDY    39  37  93 NE10      29.60F
MEDICINE HAT   CLOUDY    41  37  87 NE5       29.63F
WATERTON GATE    N/A     37  34  87 N7          N/A
CARDSTON         N/A     37  36  93 N5          N/A
MILK RIVER       N/A     39  37  93 NE6         N/A
$$

REGIONAL REPORTS...SASKATCHEWAN

CITY           SKY/WX    TMP DP  RH WIND       PRES   REMARKS
SWIFT CURRENT  PTCLDY    36  25  64 SE17      29.65S WCI  25
REGINA         PTCLDY    36  19  51 E16G22    29.79S WCI  26
SASKATOON      CLOUDY    36  21  55 E13       29.81F WCI  27
CYPRESS HILLS    N/A     36  32  87 S9          N/A  WCI  29
ROCKGLEN         N/A     32  21  64 SE12        N/A  WCI  23
ASSINIBOIA       N/A     36  34  93 E7          N/A  WCI  30
$$




USA.gov is the U.S. government's official web portal to all federal, state and local government web resources and services.